Tracking 26240 objects as of 6-Oct-2022
HD Live streaming from Space Station
objects crossing your sky now

AYAME 1 DEB

Track AYAME 1 DEB now!


NORAD ID: 32483
Int'l Code: 1979-009D
Perigee: 12,450.0 km
Apogee: 34,249.5 km
Inclination: 9.8 °
Period: 849.9 minutes
Semi major axis: 29720 km
RCS: 0.003 m2 (small)
Launch date: February 6, 1979
Source: Japan (JPN)
Launch site: TANEGASHIMA SPACE CENTER (TNSTA)

Note: This is SATELLITE DEBRIS
aabbcc
Your satellite tracking list
Your tracking list is empty




NASA's NSSDC Master Catalog

Two Line Element Set (TLE):
1 32483U 79009D   22272.52992681 -.00000119  00000-0  00000-0 0  9994
2 32483   9.7836 358.9997 3667381  26.7470 334.0601  1.69439109 90036
Source of the keplerian elements: AFSPC